Wind_Speed
11 10 10 12 15 19 22 22 22 17 10 13 16 14 16 13 11 15 12 14 21 17 17 21 19 20 19 15 16 17 16 16 17 17 14 13 12 11 12 12 13 14 12 12 14 14 16 18 18 17 17 17 18 18 18 20 20 21 21 21 20 19 17 16 16 18 17 14 14 13 12 11 10 8 7 6 6 5 5 6 6 7 7 6 7 6
12 12 13 17 19 19 21 20 21 17 8 10 13 11 14 13 10 14 13 14 19 15 14 20 20 19 20 17 16 17 17 17 18 17 16 15 13 12 13 14 14 12 11 11 12 13 16 18 19 18 17 18 19 18 18 20 20 20 21 21 18 16 15 14 15 18 16 13 14 13 12 12 10 9 9 7 6 6 6 6 6 6 6 6 6 5
12 14 19 21 18 17 18 19 22 21 13 9 10 9 10 11 10 12 14 15 15 11 11 18 18 17 19 18 17 18 18 16 17 18 16 16 15 13 13 14 13 13 13 12 11 13 16 17 18 18 17 18 19 17 18 19 20 20 22 23 19 15 14 13 14 15 13 12 12 11 11 12 10 9 9 8 7 8 8 8 8 7 6 6 6 5
11 15 21 20 16 17 17 19 23 20 14 9 9 9 9 12 12 10 13 16 14 11 11 14 14 12 15 17 17 19 18 15 15 17 15 13 14 13 13 13 13 14 15 14 13 13 15 16 17 18 17 18 17 14 17 18 19 22 24 26 23 19 17 14 15 16 13 12 11 11 11 12 10 9 9 9 10 13 12 11 11 10 9 9 7 4
16 13 14 19 19 17 16 17 19 16 12 12 12 10 9 13 15 10 11 15 13 12 11 10 9 9 13 16 16 15 16 16 15 15 15 13 13 12 12 12 12 13 13 14 14 12 13 15 16 17 17 16 12 12 15 14 18 24 25 28 27 23 22 20 19 18 15 14 14 14 13 12 12 13 13 13 14 15 14 12 12 11 10 8 6 4
19 12 8 18 21 18 17 16 18 16 11 13 14 13 11 11 17 15 13 14 10 10 13 11 9 9 13 17 15 14 15 17 15 16 16 14 14 13 12 12 12 12 12 13 13 12 13 14 14 15 16 14 12 16 16 13 17 25 27 28 26 22 22 20 19 17 16 17 18 17 15 15 16 16 13 13 16 16 14 12 11 10 9 7 5 4
15 16 9 14 20 20 19 15 18 19 12 10 13 14 13 9 14 17 15 14 9 9 14 16 12 7 11 16 17 16 16 18 17 16 17 15 14 14 12 12 12 13 13 12 13 12 13 14 15 16 16 15 17 20 20 18 20 27 29 26 22 21 21 19 18 18 17 16 17 20 19 20 22 18 13 14 17 17 15 13 11 9 8 6 5 4
14 20 14 14 18 18 16 13 16 19 13 10 12 16 15 12 13 15 14 12 9 8 12 17 15 9 8 14 18 19 18 19 20 18 18 16 15 15 13 13 14 15 14 12 13 12 13 14 15 16 17 18 21 21 22 22 22 25 27 23 20 21 21 20 19 19 17 16 17 21 20 21 22 18 17 19 18 17 16 14 11 8 7 6 5 5
15 20 18 16 17 14 14 13 16 19 15 10 11 14 15 15 14 14 12 10 10 9 10 15 17 11 8 10 16 20 19 20 22 21 19 17 17 16 15 16 16 15 14 13 13 12 13 14 14 17 19 22 25 23 21 22 21 22 23 20 19 20 20 20 19 19 19 17 19 23 22 20 17 15 19 22 20 17 15 13 11 8 7 7 7 7
13 16 18 17 14 12 14 15 16 18 15 11 11 12 12 12 12 12 11 10 10 10 10 15 18 12 8 9 14 17 19 20 19 19 18 17 18 17 16 16 16 14 13 14 13 12 12 14 15 18 21 24 25 23 21 20 20 21 21 20 19 19 18 19 19 20 20 18 19 23 23 21 17 17 22 22 20 18 15 13 11 9 8 8 8 8
10 11 15 15 13 12 14 16 16 17 17 13 12 12 10 10 9 8 9 9 9 10 13 18 20 15 10 9 12 13 15 17 16 16 17 18 18 18 16 15 15 14 13 14 14 12 13 15 18 20 21 23 22 21 21 20 20 23 22 22 21 18 18 18 20 21 19 18 20 22 22 22 21 24 25 22 21 18 14 12 10 9 8 9 8 8
11 10 12 13 14 13 12 15 15 17 18 14 11 11 10 9 8 7 7 8 9 10 14 18 20 18 13 9 12 14 15 17 18 18 19 20 19 18 16 15 15 15 14 14 14 13 13 14 18 21 21 22 22 21 22 21 21 22 22 24 23 19 19 19 20 20 18 20 22 22 24 24 24 27 27 24 23 19 14 12 11 10 9 10 9 9
11 10 14 16 16 14 12 12 13 15 16 13 12 12 11 9 8 9 9 8 10 9 10 17 19 15 13 10 10 14 18 20 18 18 19 21 20 18 17 16 15 15 15 15 14 13 12 11 16 20 20 22 22 22 23 23 22 22 23 25 23 21 21 20 20 19 19 21 21 21 23 22 21 23 24 22 20 17 14 12 12 11 10 10 10 10
10 10 15 18 14 14 14 12 12 13 14 14 14 13 12 11 9 10 10 9 11 7 5 14 16 11 11 12 12 13 16 20 19 17 18 20 20 19 18 17 15 15 15 14 13 13 12 12 16 20 21 22 22 23 24 25 23 22 23 24 23 22 22 20 21 21 21 21 20 20 22 21 22 22 19 17 17 15 14 13 12 11 11 11 11 11
12 10 14 17 13 15 17 14 13 14 14 14 15 14 12 11 9 9 9 9 12 9 7 12 12 9 8 6 10 14 14 16 18 17 17 18 19 18 16 16 15 15 15 13 14 14 13 15 18 21 22 22 22 24 25 26 24 22 23 24 23 24 23 21 22 22 21 20 20 22 22 20 24 22 18 17 16 16 16 14 12 11 11 11 11 11
14 10 13 18 15 17 18 15 15 15 13 12 13 13 13 11 9 6 2 2 7 8 8 9 7 6 3 3 5 13 15 16 16 17 18 17 17 16 15 16 15 14 15 14 14 15 14 17 20 22 24 23 23 24 25 27 27 25 25 25 24 24 22 21 22 21 21 20 21 23 21 21 24 23 21 20 19 18 17 14 12 11 11 12 12 12
11 8 15 20 17 18 18 15 16 16 11 10 12 13 14 13 10 6 1 3 2 7 8 9 8 5 3 3 6 13 15 17 16 16 17 16 16 16 14 15 15 14 15 14 14 15 16 18 21 24 25 24 25 25 26 28 27 26 27 26 25 24 23 22 21 21 22 21 22 23 21 23 27 25 23 22 20 19 16 13 12 12 12 13 13 14
7 7 14 19 16 17 17 15 16 16 12 10 11 13 12 10 9 7 6 4 5 8 7 10 13 9 6 5 9 14 16 17 17 16 16 16 16 15 14 14 16 16 16 15 15 15 16 18 21 24 25 25 27 26 26 27 26 26 27 26 25 25 24 24 22 20 22 22 22 22 21 24 29 26 23 23 22 21 17 14 14 13 14 14 14 15
5 5 12 18 16 16 16 13 12 15 15 10 10 12 11 8 8 9 7 7 8 8 6 10 13 10 8 6 10 16 18 17 18 17 17 17 16 15 14 15 17 16 15 15 15 15 15 17 21 24 25 26 28 27 25 25 25 26 25 24 25 24 23 24 22 20 22 22 20 19 19 24 29 26 25 25 23 20 18 15 15 15 15 15 15 15
5 3 9 15 16 14 13 10 10 13 13 8 9 13 12 8 9 9 6 6 8 8 6 8 10 9 8 7 11 16 18 18 19 17 16 17 16 15 14 14 15 15 14 14 15 15 15 18 22 24 25 27 29 28 27 26 25 25 25 25 25 24 23 24 23 22 23 22 19 18 19 25 28 27 25 25 23 20 18 16 16 16 16 16 16 16
4 3 6 12 15 13 10 9 11 13 12 8 8 13 12 9 8 8 7 6 6 7 7 7 7 7 7 6 8 13 15 16 17 16 15 15 16 16 15 14 14 14 15 15 14 15 15 18 22 24 25 27 28 28 28 27 25 26 26 25 24 24 24 24 25 25 23 20 19 19 23 28 29 26 26 25 23 21 19 17 17 17 17 16 16 16
2 3 7 11 11 11 11 12 13 14 15 11 8 10 12 10 9 9 9 8 6 6 5 6 6 4 6 7 8 11 13 14 16 16 14 15 17 17 15 14 14 14 14 15 14 15 15 16 21 23 24 26 27 28 28 28 29 29 27 24 23 24 24 22 26 27 22 20 20 21 26 31 29 27 28 26 25 23 20 18 17 17 17 17 16 17
1 1 7 10 9 11 13 14 13 13 15 14 10 10 11 11 10 9 8 8 6 4 3 4 5 3 6 6 9 10 9 10 14 17 16 15 16 16 14 13 13 13 14 14 14 14 14 17 21 24 25 25 26 28 28 29 32 31 27 24 22 23 23 21 24 27 23 22 22 23 30 32 29 29 30 28 26 23 20 19 18 18 18 17 17 17
2 2 7 9 8 9 9 10 10 10 12 13 10 11 12 12 12 9 7 7 6 6 4 3 5 4 4 2 4 5 4 3 5 10 12 11 10 11 12 12 12 13 14 14 14 14 15 18 21 22 24 25 26 27 28 29 29 27 26 25 22 21 22 21 22 25 24 23 25 28 32 32 30 30 31 28 25 23 20 19 19 18 18 17 17 17
3 3 6 8 9 8 6 8 9 10 10 9 9 11 12 13 14 10 8 7 6 9 9 4 4 5 5 4 4 4 3 3 3 5 8 7 7 9 10 11 12 13 14 14 15 15 17 19 19 20 23 24 25 26 27 27 26 25 25 25 21 20 22 22 21 23 23 24 28 32 32 31 31 32 31 28 24 22 21 20 19 18 18 18 17 17
2 3 4 6 8 9 8 8 9 10 10 7 10 13 12 13 15 11 8 7 7 9 10 6 3 6 9 7 7 7 5 5 5 7 9 8 9 10 10 12 13 13 14 15 16 17 18 18 17 19 22 24 24 26 26 26 26 25 24 23 20 21 23 22 21 23 23 24 29 31 30 31 32 32 30 28 24 22 21 20 19 18 18 18 18 18
2 3 3 2 3 4 5 5 5 8 11 10 12 14 13 14 15 12 9 7 7 8 8 8 7 4 8 9 8 8 6 3 3 6 8 8 10 11 11 12 13 13 13 14 15 16 17 18 19 20 22 24 25 26 26 25 25 24 24 22 21 23 24 22 22 23 23 26 28 28 30 32 32 31 29 25 23 22 21 19 19 18 18 18 18 18
3 3 2 4 4 1 1 3 2 5 11 13 14 14 14 15 15 14 12 9 9 8 7 10 12 10 7 7 5 6 4 2 2 5 6 7 9 10 11 13 14 14 14 15 16 18 18 18 18 18 21 24 24 25 26 25 25 24 23 23 22 23 25 23 23 23 24 26 27 26 30 32 31 30 27 23 21 22 20 19 18 18 18 18 18 18
4 3 1 5 6 4 3 2 2 4 8 11 14 15 15 16 17 16 14 12 11 9 7 11 15 16 12 8 2 5 3 2 3 4 5 6 9 10 12 13 14 15 16 17 18 19 18 18 17 17 20 23 24 25 25 25 25 25 24 23 22 23 26 25 23 23 24 25 25 27 31 29 26 25 24 21 20 20 19 18 18 18 18 18 18 18
4 2 2 5 6 5 5 4 5 6 7 9 14 16 16 17 18 16 15 14 12 10 8 9 12 17 15 8 1 4 4 3 4 5 6 8 10 11 12 14 15 15 17 18 18 19 18 18 19 18 20 23 26 27 25 25 26 26 25 25 24 24 26 27 25 23 24 23 23 26 27 24 22 22 21 20 20 20 19 18 18 18 18 18 17 17
4 0 2 4 5 4 4 4 6 8 10 10 12 15 16 17 18 17 15 14 12 11 11 8 8 14 11 2 3 4 4 4 5 7 8 9 10 12 13 14 16 17 18 19 19 19 19 19 19 19 19 23 26 27 26 25 26 26 25 25 25 25 26 29 26 22 22 23 23 23 22 21 21 21 20 20 20 20 19 19 18 18 18 17 17 16
4 2 2 4 4 2 2 4 7 7 10 11 13 16 17 17 16 15 14 14 13 12 13 10 9 13 9 3 5 4 4 4 6 7 8 9 11 13 14 15 16 17 17 18 19 19 20 20 20 19 20 24 27 28 27 26 26 26 25 25 25 26 26 26 25 21 20 22 24 23 21 21 22 21 21 21 21 21 21 19 18 18 18 17 17 16
4 4 3 3 3 2 2 5 3 7 9 11 13 16 17 16 15 15 15 16 15 13 11 10 10 14 12 6 3 2 1 1 3 6 7 9 11 13 14 15 16 16 17 19 20 20 20 19 19 21 23 26 28 28 26 26 26 25 25 25 25 25 25 23 22 22 21 21 24 23 21 23 23 20 20 20 19 19 19 18 19 18 17 17 16 16
3 4 4 3 3 4 5 6 1 9 9 5 5 12 18 17 16 16 15 15 15 13 11 10 13 16 15 10 7 5 3 2 1 4 7 8 10 12 14 15 15 16 17 18 19 20 19 18 19 22 25 25 26 27 26 25 24 24 24 25 24 25 25 22 20 21 20 20 23 23 22 22 20 17 17 17 15 14 14 13 15 16 16 16 16 15
2 4 4 4 4 5 6 4 4 8 5 1 2 6 14 17 18 17 16 16 17 17 16 16 17 19 16 11 6 4 3 1 1 4 7 9 10 12 13 14 15 16 17 18 19 20 19 18 19 22 25 25 25 26 24 23 23 23 23 23 23 24 25 23 20 20 19 20 22 22 22 22 21 19 20 19 18 18 18 15 14 14 14 13 14 14
2 4 5 4 4 5 5 4 5 2 1 4 3 2 6 12 17 16 15 17 19 19 19 19 19 19 16 10 4 2 2 0 3 5 8 10 11 12 12 13 14 15 16 16 18 18 19 20 22 23 24 25 25 25 24 22 23 23 22 21 22 22 23 23 21 20 19 20 21 23 25 28 28 27 26 24 24 26 24 18 15 14 13 12 12 12
2 4 4 4 3 4 4 5 4 3 2 5 4 3 5 6 11 13 11 12 16 17 17 18 19 18 15 9 3 1 1 1 4 6 9 11 12 11 11 11 13 14 14 15 17 19 21 23 24 24 24 24 25 25 24 23 23 22 20 20 20 20 20 20 20 19 20 21 22 24 29 33 34 31 30 29 30 30 27 21 17 15 14 13 11 11
4 5 4 4 3 4 5 5 5 5 4 3 4 3 2 2 4 11 10 8 12 16 17 17 18 17 14 9 3 2 1 5 7 4 8 12 11 11 11 11 12 14 14 16 18 20 23 24 25 25 25 24 25 25 24 24 23 21 20 20 20 20 19 19 19 19 21 23 25 27 30 34 35 34 33 32 33 32 29 26 24 22 20 17 13 11
3 5 5 5 6 5 6 6 5 3 1 4 5 3 1 3 2 8 9 8 11 15 15 16 17 15 11 7 5 5 4 6 5 0 5 11 12 11 12 12 12 13 15 17 19 20 23 24 24 25 25 25 25 25 25 25 24 22 20 21 22 21 21 20 20 21 23 26 28 29 32 34 35 35 34 34 34 31 28 27 27 25 23 19 14 11
4 4 5 6 6 6 6 6 4 2 5 6 6 5 3 1 3 8 8 6 8 12 12 13 13 11 7 7 7 7 7 5 1 2 2 9 13 12 11 12 12 13 15 17 19 21 23 24 24 25 26 26 26 26 25 24 22 21 20 20 20 20 20 21 21 22 24 26 27 29 33 36 36 35 35 33 32 31 30 30 29 26 23 19 13 11
5 4 5 6 6 5 5 5 2 3 5 6 7 6 3 1 5 9 6 1 2 5 7 7 8 7 6 8 8 6 3 1 4 3 3 9 13 13 11 11 13 14 15 17 19 21 22 23 25 26 26 25 25 25 24 22 20 19 19 19 19 18 18 19 20 21 23 24 26 30 33 35 35 34 33 32 31 31 30 30 30 29 26 21 16 14
5 4 4 5 5 4 3 4 3 3 3 7 8 4 1 3 5 4 1 3 2 1 2 3 4 5 6 8 6 3 3 4 5 1 7 11 13 13 12 13 14 15 16 17 19 21 21 22 23 24 24 23 22 22 22 21 20 19 18 18 18 18 17 18 20 22 23 25 28 32 33 34 34 33 32 31 31 30 27 27 28 28 27 23 20 19
4 4 3 3 3 3 3 3 3 2 3 8 7 1 1 1 1 3 4 3 2 3 2 2 3 5 7 8 5 4 4 4 3 3 9 12 13 13 13 13 14 15 16 17 19 20 20 19 21 22 22 22 21 21 22 22 20 19 18 18 18 18 18 18 20 22 24 27 31 32 32 33 33 32 31 30 28 26 24 23 24 24 24 22 19 18
2 3 3 0 1 3 2 0 1 2 5 8 6 1 2 4 5 6 5 3 4 3 1 2 3 5 7 7 6 5 3 2 3 5 8 10 11 12 12 12 14 15 16 17 19 20 19 18 19 21 21 21 21 21 22 22 21 19 18 18 18 19 20 20 20 22 25 29 31 32 32 33 33 30 29 28 26 23 21 22 23 21 20 19 17 16
1 2 4 2 1 3 3 2 3 3 4 5 4 3 5 5 4 5 5 4 5 4 3 3 4 5 5 5 5 4 2 2 3 4 6 8 9 10 10 12 14 15 16 17 19 20 18 17 19 20 21 21 21 21 21 21 21 20 19 18 19 21 22 21 21 23 26 26 29 32 33 33 32 29 27 28 28 25 24 26 25 20 17 18 17 16
2 3 3 3 2 3 3 1 1 3 5 6 3 2 3 5 5 5 5 5 6 6 5 5 5 5 4 4 4 3 2 3 3 4 5 6 7 8 10 12 13 15 16 17 18 20 19 17 19 20 20 20 21 21 20 20 20 21 19 19 20 21 22 22 23 24 25 24 26 32 33 29 28 28 28 29 30 29 28 30 28 21 17 18 17 16
3 2 3 3 3 3 2 3 4 3 2 6 3 3 5 6 6 6 5 6 6 6 7 7 6 4 3 2 2 2 2 3 4 4 5 5 7 8 10 12 13 14 16 16 18 19 19 17 18 19 19 20 21 20 19 18 19 19 18 20 21 20 21 23 23 23 23 22 25 29 28 23 23 24 26 29 30 27 25 26 25 21 18 18 17 16
2 2 4 3 4 4 0 4 6 6 5 6 2 3 5 6 7 6 5 4 5 6 6 6 5 4 4 3 3 4 4 3 4 5 5 5 6 8 9 11 12 13 15 16 18 19 18 17 18 19 18 19 20 19 18 17 16 17 18 19 21 21 21 23 24 24 23 22 25 27 26 23 23 23 24 27 28 25 22 22 21 20 20 20 19 18
2 3 3 2 4 4 2 3 6 6 5 4 1 5 5 5 6 5 4 4 5 7 7 6 5 5 4 4 5 6 6 4 4 5 5 5 6 6 7 9 11 12 13 14 16 18 18 16 17 18 18 19 18 18 17 15 16 17 18 19 20 22 23 25 26 25 24 24 27 29 26 23 24 24 23 24 25 23 22 25 24 22 20 21 22 23
3 4 3 2 3 3 1 1 4 4 3 3 1 3 5 6 6 5 6 6 6 7 7 7 7 6 6 6 6 6 7 6 5 5 5 5 6 6 7 9 10 12 12 12 14 17 17 15 16 18 18 17 17 17 17 16 16 17 18 19 20 22 24 25 23 21 21 23 25 28 27 23 22 22 21 21 22 20 20 23 24 22 20 20 25 29
4 4 3 4 4 2 3 2 2 3 2 4 4 1 3 5 6 6 6 7 7 7 6 6 8 8 7 7 7 7 8 8 6 6 7 6 6 7 8 9 10 11 12 12 14 16 16 15 16 18 17 17 17 17 17 16 17 17 18 19 21 21 23 25 21 18 19 21 22 26 29 26 23 22 19 18 19 19 19 19 20 22 21 20 24 29
Wind_Direction
202 212 210 215 213 210 209 212 218 221 245 246 224 213 213 211 204 201 188 176 185 192 204 210 213 213 208 198 188 178 184 199 203 204 205 201 197 195 198 195 197 203 203 195 183 174 184 192 191 187 186 187 188 188 184 177 171 171 171 166 163 166 169 169 170 170 168 164 162 161 159 160 161 160 162 167 157 149 161 159 153 154 152 152 149 142
205 221 219 218 219 217 213 214 221 224 243 246 225 209 205 205 195 194 189 173 183 199 207 210 215 214 209 202 192 182 185 198 202 202 202 200 197 196 199 199 199 201 198 190 178 175 185 193 192 186 186 189 189 187 182 173 167 170 170 162 159 167 175 174 170 169 168 165 164 163 163 161 156 159 160 157 156 157 157 155 151 149 149 151 152 149
208 224 225 220 219 222 217 213 217 220 223 230 220 207 202 203 195 190 192 182 185 204 211 207 213 215 209 205 197 188 191 199 202 202 202 199 197 195 198 201 200 198 196 190 181 180 187 192 190 186 189 191 190 186 178 170 164 166 169 168 171 175 177 177 171 168 168 169 168 163 165 164 155 155 158 153 160 169 161 160 165 160 160 165 163 166
210 222 224 221 216 219 218 211 212 216 220 228 222 215 211 203 199 193 193 193 190 205 222 211 210 216 207 205 203 196 196 200 202 205 206 204 200 197 199 201 199 199 198 194 190 188 189 191 188 189 189 190 194 183 171 167 159 157 164 174 184 182 176 178 174 171 170 166 161 156 161 166 162 159 158 153 160 172 171 172 179 176 176 178 173 172
219 222 220 217 211 210 213 207 207 212 215 225 228 227 221 201 203 205 186 186 190 204 222 213 203 217 207 202 203 198 198 202 201 203 206 207 205 203 203 204 203 202 201 197 195 192 189 191 190 187 184 188 187 156 157 163 150 150 162 178 187 184 180 183 177 170 165 159 154 151 147 149 161 162 156 153 160 169 170 169 175 175 176 182 187 188
222 219 210 213 207 203 212 208 205 210 213 221 222 228 240 212 201 204 178 171 186 201 205 203 208 215 202 201 201 191 196 202 199 201 205 204 205 207 206 205 206 207 207 203 200 195 190 189 186 180 179 177 148 131 153 172 154 154 166 177 185 184 181 182 177 170 162 157 157 159 157 155 161 160 154 157 161 163 164 166 170 173 174 177 184 180
225 216 202 210 206 202 214 215 205 207 210 217 207 211 238 228 198 198 182 177 199 205 195 201 220 219 193 201 201 189 193 199 200 204 204 202 203 207 207 204 204 206 208 207 204 200 193 187 179 176 174 160 138 141 165 177 165 164 169 174 181 182 177 173 173 173 162 153 162 175 178 172 167 162 157 165 165 165 170 172 170 171 172 166 164 159
224 219 207 208 210 203 209 212 200 200 208 215 197 194 211 220 209 199 187 192 211 208 193 198 216 232 207 199 194 189 193 198 202 205 204 202 203 204 206 203 203 205 205 204 204 204 200 189 176 173 168 147 141 152 165 167 164 167 172 176 180 178 174 174 175 174 165 156 169 181 179 172 172 168 165 171 173 174 175 171 166 167 164 149 141 133
211 219 209 206 214 207 204 207 194 193 206 209 186 185 196 207 214 204 195 206 211 209 200 194 205 228 228 196 184 186 193 199 202 202 201 201 201 204 207 205 204 204 203 203 203 204 202 189 169 165 159 146 151 163 164 163 164 167 171 179 180 175 175 177 174 171 170 165 174 182 176 171 174 171 168 170 176 179 173 167 164 163 153 139 133 127
202 219 216 210 215 210 202 204 194 190 202 199 176 176 182 192 206 205 205 212 208 213 214 198 198 215 228 196 181 188 196 201 200 197 197 198 199 204 207 206 205 202 202 204 204 200 197 185 165 157 152 149 160 170 166 165 170 167 167 175 180 175 173 173 170 170 173 173 176 178 177 176 175 171 168 166 171 176 168 160 159 152 143 135 131 125
198 213 220 215 216 214 204 201 194 190 198 195 177 175 173 179 192 198 211 216 210 218 221 207 198 205 225 204 187 197 200 195 192 191 194 196 199 203 206 206 203 201 200 202 202 192 183 175 163 155 152 154 163 168 166 168 171 165 165 173 176 174 173 172 173 173 172 173 173 176 184 187 180 176 172 167 169 171 162 156 153 147 142 135 132 130
208 210 211 211 214 215 206 197 189 189 196 194 185 179 169 170 179 186 201 211 216 220 219 211 199 202 222 212 192 198 196 191 191 192 192 194 198 201 204 206 203 202 199 199 203 193 183 175 164 157 154 158 165 167 166 168 168 164 167 173 171 172 176 175 176 174 170 173 178 187 195 191 182 179 176 171 170 168 163 162 156 150 145 138 138 137
211 215 198 199 207 208 204 192 182 188 194 192 192 187 177 174 175 184 189 197 215 221 214 206 198 203 222 224 206 193 188 189 191 194 193 193 198 199 200 202 200 202 200 199 204 199 192 188 173 164 159 160 168 171 166 164 165 164 167 170 167 169 174 175 174 169 167 176 182 188 190 185 180 179 175 170 167 164 163 162 157 153 150 148 146 143
200 215 198 193 197 202 207 195 181 185 186 190 194 189 186 182 173 184 187 195 210 210 203 199 196 208 223 224 220 198 184 188 189 195 198 194 197 199 199 199 195 197 198 197 202 194 184 185 177 168 163 163 169 172 167 164 164 164 166 168 167 169 173 174 174 168 167 176 180 179 180 181 179 175 171 165 159 158 159 157 156 155 154 153 149 144
190 201 192 191 187 191 205 205 188 180 181 192 197 193 197 190 176 186 189 197 203 185 177 191 194 212 217 213 212 193 183 189 188 193 200 198 199 199 197 196 193 193 193 193 197 190 180 183 178 167 165 166 168 170 169 166 164 164 168 169 169 172 172 171 173 172 171 175 177 176 178 180 178 173 169 164 160 162 164 158 154 155 155 150 145 144
194 190 180 190 189 184 198 207 192 184 183 191 197 200 204 197 183 182 181 220 206 181 175 188 198 211 184 80 181 185 183 188 189 193 198 199 200 198 195 194 191 191 191 190 193 189 185 187 178 167 166 165 165 169 171 169 165 164 168 170 171 170 169 170 171 173 175 173 173 176 176 177 178 177 174 172 170 171 168 157 150 153 152 146 144 145
192 177 166 183 189 184 195 204 194 191 185 181 198 203 201 204 201 187 116 49 177 192 183 189 204 200 158 128 171 184 187 185 186 193 195 195 194 192 193 192 188 189 191 189 190 189 189 188 180 171 168 164 165 169 170 169 166 164 168 172 171 167 168 172 173 174 177 174 172 175 175 178 185 184 179 175 171 170 166 155 150 151 148 147 147 147
190 161 161 179 185 182 194 203 196 201 198 182 194 195 191 210 219 204 190 153 180 203 186 189 206 206 197 186 172 182 188 184 184 189 189 188 185 184 187 188 188 190 190 188 188 187 186 186 180 174 170 167 167 167 168 168 165 166 171 173 169 167 170 175 175 176 177 173 172 174 174 183 189 184 177 174 171 169 166 157 153 152 150 152 152 150
196 157 159 179 183 177 188 196 192 206 213 206 199 190 186 199 200 197 202 186 191 205 192 195 208 212 210 185 168 182 186 180 183 188 189 187 184 185 189 188 189 190 188 187 187 184 183 185 181 174 171 171 168 165 167 167 164 168 174 172 168 167 172 175 174 177 177 173 172 171 174 185 186 179 175 175 172 169 164 157 155 154 154 156 155 154
202 173 154 177 182 174 182 192 188 195 207 225 221 198 194 204 197 197 210 200 196 204 204 200 201 210 215 186 170 183 187 184 184 188 191 189 187 190 191 190 192 190 187 188 186 182 182 187 184 176 172 172 169 164 165 165 163 169 175 173 168 166 170 174 177 179 177 175 172 167 174 183 182 178 177 176 173 169 162 158 157 156 157 158 157 156
203 189 149 168 177 173 180 194 192 186 187 205 211 193 192 204 205 205 213 215 212 208 203 199 201 204 201 191 181 179 183 187 188 189 190 189 191 193 193 191 189 187 186 185 183 179 179 184 184 178 171 170 169 165 163 164 164 169 175 175 172 167 167 173 180 180 176 174 171 168 177 181 180 180 178 174 173 169 161 159 159 158 159 159 159 158
195 185 156 161 173 180 184 191 196 191 188 194 198 190 191 194 197 202 202 206 225 230 209 204 218 197 158 175 192 182 182 190 191 193 193 191 194 195 195 191 184 180 181 180 177 176 176 180 180 176 169 167 167 165 163 165 167 169 174 178 176 170 169 174 180 179 174 172 170 172 179 180 178 180 178 174 174 170 162 161 160 160 161 160 160 161
254 228 162 158 172 182 179 188 203 198 190 198 207 202 199 198 203 206 195 191 206 227 216 207 215 167 123 167 193 182 180 189 194 199 200 197 197 196 192 186 178 175 174 173 172 171 175 178 176 172 168 165 164 164 163 165 168 170 175 179 179 175 174 174 177 178 175 170 169 173 178 177 176 180 178 175 175 170 163 160 161 163 163 161 161 162
234 216 162 153 166 171 162 180 208 212 198 200 208 210 208 204 206 217 216 199 198 204 196 196 201 161 100 119 191 160 140 156 192 205 203 196 190 187 182 175 172 170 167 169 170 169 177 180 175 170 168 164 161 160 162 163 165 169 174 178 180 178 176 175 176 177 175 170 168 172 177 177 176 178 177 176 175 168 163 162 162 164 164 162 162 163
197 201 166 153 158 160 157 175 198 213 211 206 206 210 214 209 205 217 229 216 211 211 204 207 206 157 111 100 140 150 169 199 224 215 200 186 168 167 167 164 166 166 166 171 172 173 180 181 177 173 168 163 158 157 161 162 161 164 170 177 180 178 177 176 175 176 173 169 170 173 178 179 177 177 178 178 174 168 165 164 163 165 165 164 163 163
200 213 180 161 162 165 174 181 187 198 204 210 209 204 209 214 208 208 217 213 210 210 206 217 205 134 124 132 140 147 170 194 215 210 199 192 177 168 164 164 166 168 171 176 178 179 182 181 180 174 167 164 161 160 163 163 162 164 170 177 179 176 176 175 175 175 170 168 172 176 181 180 177 178 180 178 174 169 167 164 164 167 167 166 166 165
262 234 229 250 209 161 149 151 164 193 198 201 207 203 202 212 213 212 216 215 211 210 206 219 231 176 153 166 155 144 155 166 195 198 190 187 178 170 169 168 168 171 172 177 181 181 181 182 180 173 169 169 166 165 167 167 166 168 172 176 177 176 175 174 174 172 167 170 175 179 183 182 179 180 180 177 174 170 167 166 167 168 167 168 169 168
270 229 249 309 285 254 113 115 130 201 204 199 202 204 201 205 211 216 220 218 217 223 208 211 237 251 228 207 165 130 130 109 140 185 185 178 174 170 169 167 167 170 172 177 183 182 179 178 175 171 171 172 170 169 170 171 172 173 174 174 176 177 174 172 172 170 170 176 177 178 182 183 181 181 180 175 172 169 167 167 169 169 169 170 171 172
266 251 289 314 293 284 283 230 187 210 214 207 205 204 202 204 210 214 220 221 219 230 219 204 228 247 248 241 178 109 90 61 107 158 174 174 175 171 168 168 170 174 178 181 184 182 178 174 171 173 174 173 173 171 170 173 176 176 175 175 177 179 175 171 171 172 174 175 175 178 181 180 178 178 177 173 169 167 166 167 170 170 170 172 174 174
251 278 357 307 288 282 268 241 224 217 214 215 212 208 204 206 211 214 219 223 223 236 237 218 235 253 257 257 203 106 86 79 118 146 169 179 182 177 173 174 177 181 186 187 184 179 177 173 170 174 177 176 175 173 170 172 175 175 175 176 177 177 175 172 171 174 175 170 171 177 178 175 173 173 172 171 169 167 167 169 170 171 172 174 175 175
225 283 12 300 282 256 230 248 258 234 220 220 217 215 211 208 210 213 214 219 223 230 238 245 266 266 260 234 125 124 112 125 152 167 180 186 184 181 181 181 183 186 189 190 186 178 175 175 172 172 177 178 177 175 173 173 175 176 175 176 176 175 175 175 173 174 173 166 165 170 170 170 172 171 170 171 169 168 170 171 171 172 174 175 175 175
217 249 284 278 268 211 193 283 271 228 215 224 221 216 214 209 210 212 211 216 217 217 227 236 247 250 243 140 109 132 137 162 186 182 184 190 187 184 186 188 189 189 188 189 187 181 179 178 174 172 175 178 177 178 178 177 177 177 177 177 176 172 172 174 174 176 173 165 163 165 166 171 174 172 172 171 170 171 171 170 172 174 175 176 176 176
220 250 268 281 273 247 343 331 273 192 198 223 222 212 210 210 211 212 212 216 217 216 221 222 228 242 248 254 286 292 141 189 208 191 191 194 188 186 189 191 192 189 188 188 189 188 186 182 178 175 176 177 178 179 179 178 177 178 179 178 173 166 167 170 174 178 174 164 162 166 172 177 175 171 172 171 169 168 168 170 174 176 176 177 177 178
233 261 282 308 297 290 328 349 249 195 201 223 221 204 204 207 209 211 212 211 212 217 225 231 239 247 252 261 285 314 356 14 256 208 206 197 187 188 192 193 192 190 188 187 189 191 190 188 183 179 177 179 180 179 178 177 176 176 176 173 166 164 167 168 171 176 170 161 161 164 167 169 165 161 163 159 150 152 160 172 179 179 177 177 179 182
226 268 284 292 283 288 307 309 220 209 204 59 33 198 201 205 208 212 216 212 211 217 224 233 242 247 253 264 290 335 7 15 247 216 206 196 191 191 192 191 192 191 187 185 188 189 189 189 185 178 177 178 178 178 177 174 174 173 170 164 161 166 170 169 170 173 166 157 156 154 154 158 159 159 156 150 152 167 175 183 189 184 178 178 181 185
245 269 278 283 278 285 283 231 202 217 119 114 97 135 185 203 207 210 218 216 214 217 220 227 238 245 254 268 296 2 31 62 235 216 199 198 199 195 192 190 190 192 189 186 187 186 185 187 185 180 177 174 173 174 173 172 174 171 163 159 161 165 168 169 171 171 165 159 156 154 161 169 171 168 164 165 176 183 182 180 183 180 175 177 181 186
209 257 276 288 277 283 280 236 226 272 204 153 136 146 166 199 207 206 216 221 216 217 220 226 236 243 251 267 294 33 46 282 256 223 196 200 203 197 194 190 186 189 190 186 185 184 182 182 182 180 176 171 173 175 174 175 177 169 159 157 160 161 162 164 165 163 159 159 158 161 171 178 177 174 175 181 186 184 179 176 176 176 176 176 177 184
187 251 286 303 288 288 288 256 229 229 203 122 72 111 149 320 238 205 213 227 216 214 219 226 235 242 247 256 251 149 203 273 274 242 187 191 195 192 190 186 182 184 185 182 182 181 179 178 178 177 173 170 175 179 178 179 177 168 160 163 165 166 168 169 168 163 160 163 166 169 176 181 181 180 182 187 187 183 180 179 180 184 189 188 185 187
203 255 275 281 278 280 281 260 223 201 97 56 44 62 91 330 258 190 203 232 215 207 214 222 232 239 241 234 206 180 219 254 264 190 162 173 177 184 185 179 178 181 179 178 178 177 177 176 175 174 173 173 177 180 178 176 171 164 163 168 171 174 177 178 175 171 171 175 176 178 181 183 185 185 187 188 186 182 180 180 182 187 193 194 192 189
211 249 265 270 275 270 265 259 230 138 62 41 11 359 9 332 197 182 194 217 199 190 199 211 224 233 222 198 191 199 226 242 220 54 162 167 164 174 180 175 176 179 176 174 175 175 174 173 173 175 177 179 180 177 173 169 163 161 162 165 170 176 179 179 177 173 175 178 178 181 185 186 187 187 188 188 186 184 185 185 184 186 190 191 187 179
201 230 258 271 280 272 252 254 242 104 61 17 350 346 356 189 192 188 187 167 130 161 177 196 216 223 197 185 193 203 219 336 33 19 210 172 159 165 175 172 172 176 174 171 171 170 170 172 176 179 180 179 175 170 168 165 162 163 163 164 171 176 176 175 172 169 171 173 177 183 188 188 189 189 188 189 187 186 186 187 186 185 188 193 192 187
191 207 246 262 274 279 258 256 245 132 70 355 346 348 265 204 184 174 179 353 359 63 121 170 208 212 190 188 192 163 96 46 24 63 183 170 158 162 171 172 172 173 172 168 167 168 170 174 180 182 181 177 170 165 166 165 164 165 166 169 175 175 170 166 165 166 170 175 182 186 186 186 188 190 190 190 187 183 182 185 186 185 187 194 197 195
178 196 237 254 271 281 263 248 244 147 56 355 343 352 200 265 339 355 339 342 14 24 51 153 189 197 186 177 157 111 90 57 40 138 164 161 155 160 168 172 172 173 171 168 169 172 174 175 178 181 181 178 173 170 170 169 167 167 170 174 177 172 165 162 163 168 175 181 185 186 184 185 188 189 189 187 183 179 177 178 179 180 184 189 191 189
192 223 255 267 39 294 286 53 1 17 25 1 344 353 3 346 339 326 323 3 50 36 38 121 149 175 179 162 137 118 102 65 69 125 149 150 149 156 164 168 171 173 173 172 173 175 174 174 175 177 179 181 179 177 175 173 170 169 173 176 171 164 162 162 162 168 177 182 184 184 184 188 191 190 187 185 181 174 173 174 175 176 180 182 181 182
348 342 310 306 305 297 310 10 7 348 4 5 353 337 342 349 350 329 333 18 44 30 30 90 133 155 161 154 150 149 147 107 85 110 133 139 145 155 162 167 172 175 174 174 175 175 175 173 173 175 179 182 184 182 180 176 172 172 176 173 162 158 160 160 160 168 173 175 179 182 185 189 193 190 187 187 184 180 178 178 176 174 175 179 182 184
44 19 316 298 292 282 266 222 52 0 344 342 356 34 6 7 13 357 5 39 43 28 37 74 120 143 151 168 184 198 180 146 119 106 112 125 143 156 163 169 175 176 177 177 175 177 178 175 173 175 178 180 184 184 181 178 178 178 175 167 160 159 162 162 162 167 170 169 175 182 184 186 190 190 190 191 190 187 186 185 182 177 175 180 185 189
76 23 294 278 276 275 223 150 134 127 300 305 324 82 64 41 33 23 26 40 38 35 46 62 86 115 136 168 190 178 151 142 132 120 112 121 144 160 169 175 176 176 179 178 174 176 180 177 175 177 179 180 184 185 181 179 182 179 169 163 163 163 164 166 165 165 167 168 173 179 180 180 184 187 190 192 190 187 186 187 186 182 181 185 189 190
59 330 295 269 262 275 21 116 139 162 209 254 278 72 65 51 45 42 44 47 47 56 61 57 66 92 104 102 112 129 139 145 140 130 123 129 145 158 170 176 175 176 179 175 171 176 182 181 177 177 178 181 184 184 182 179 179 173 163 162 165 164 164 170 171 168 168 169 172 176 178 180 182 182 184 189 190 186 184 185 184 186 191 195 192 186
313 291 300 306 275 270 253 156 157 169 198 217 91 55 45 34 27 39 72 86 81 83 85 76 66 67 79 90 102 117 125 124 120 122 126 135 141 149 162 168 170 175 176 170 171 180 185 182 178 177 179 182 184 182 179 175 170 168 165 163 166 170 173 175 175 173 174 174 176 179 180 181 184 182 179 184 188 188 190 191 190 192 197 199 198 196
272 273 288 289 260 257 285 182 166 176 199 176 108 8 5 8 4 24 60 66 67 79 90 97 94 81 70 72 84 105 110 101 99 112 120 124 129 137 149 155 162 171 173 168 173 183 184 181 180 180 180 184 186 182 176 168 163 164 164 163 168 174 177 174 169 168 173 174 177 182 183 181 184 184 180 181 183 185 192 197 197 198 199 200 207 210
270 296 308 292 280 304 350 333 220 232 215 141 145 229 351 0 350 9 40 38 38 50 61 82 95 91 82 73 71 85 96 98 101 110 110 108 115 127 140 148 155 164 169 172 178 182 181 179 180 180 179 183 185 181 175 167 162 163 166 170 174 175 174 171 165 163 171 175 179 185 185 183 184 185 183 186 187 184 187 192 196 200 202 205 211 213
Height
764 767 766 761 754 750 747 744 741 734 734 734 729 732 734 733 735 729 729 730 729 739 743 739 741 742 741 744 745 745 747 749 749 749 750 751 754 756 758 761 763 766 767 769 774 779 782 785 787 789 791 792 795 798 800 803 805 808 809 811 814 816 817 818 820 822 824 825 827 829 831 833 835 837 839 840 841 842 842 843 843 844 844 845 845 845
760 763 758 751 746 743 743 745 743 739 740 739 731 731 732 733 734 729 728 730 728 734 738 735 738 739 737 740 741 741 746 748 746 747 749 750 752 754 756 759 761 763 766 769 774 778 781 783 785 787 789 791 794 796 800 802 804 807 809 812 815 817 818 818 819 822 824 826 828 830 832 834 836 838 839 840 841 842 843 843 844 845 845 846 846 846
761 757 749 744 743 742 743 744 744 742 742 742 735 735 736 732 731 730 728 728 728 733 734 732 736 736 733 735 737 739 741 742 741 741 744 746 750 752 754 756 758 761 764 768 773 776 779 781 783 786 788 790 793 796 799 802 804 806 809 812 816 817 817 818 820 822 824 826 828 830 832 834 836 837 839 840 841 842 843 843 844 845 845 846 846 846
758 749 741 741 741 743 743 742 743 743 744 743 736 735 734 728 730 735 733 728 727 731 731 729 734 734 731 733 734 735 736 737 738 739 740 743 746 749 751 753 756 759 762 766 771 774 776 779 781 784 786 789 792 796 799 802 804 806 809 812 814 815 816 818 819 821 823 825 828 830 833 835 836 837 838 839 840 841 842 843 844 845 845 846 846 846
749 738 736 740 739 742 746 743 744 746 747 744 736 732 729 725 728 730 728 728 729 732 730 731 742 739 730 733 735 733 734 736 737 739 741 742 743 746 748 750 753 755 758 762 767 771 773 777 780 782 785 789 792 796 800 804 805 807 809 811 812 813 815 816 818 821 823 824 827 831 834 836 837 837 838 838 840 841 842 844 844 845 845 845 846 846
743 735 735 738 736 741 748 745 743 745 746 743 737 732 726 722 725 724 724 731 740 744 734 735 753 746 728 731 734 732 736 736 736 739 741 742 743 745 747 749 751 752 754 757 762 767 770 775 779 781 784 788 792 795 800 805 806 807 807 809 811 812 813 815 818 821 822 823 827 831 833 836 837 837 838 839 839 841 843 844 844 845 845 845 846 846
742 736 737 739 737 743 747 742 738 738 743 743 734 731 729 723 723 723 724 733 742 742 730 729 745 743 730 731 730 730 736 737 736 737 738 739 741 743 745 747 748 750 752 754 759 763 767 772 777 780 783 787 791 794 798 801 803 805 805 806 808 810 812 815 817 820 822 824 827 829 831 833 835 837 837 839 840 841 842 843 844 845 845 845 845 845
741 738 739 740 739 742 743 737 733 733 741 738 725 727 733 729 726 723 724 732 730 727 725 725 733 737 732 726 723 727 735 737 735 735 735 735 738 740 741 743 745 747 749 752 757 761 765 770 775 779 782 785 789 792 795 797 800 803 804 805 807 809 812 814 817 819 822 824 826 828 830 832 834 835 836 838 840 841 842 842 844 845 845 845 845 845
738 739 738 740 738 736 734 731 728 731 737 730 720 724 729 728 727 721 724 728 721 724 733 728 728 739 732 717 716 725 732 735 732 731 732 732 735 737 738 739 741 743 746 749 755 760 763 768 773 777 780 784 787 789 792 796 799 801 802 805 807 808 811 813 816 819 821 823 825 826 829 831 834 835 835 836 839 841 841 842 844 845 845 845 845 846
735 736 735 737 736 729 727 725 723 729 732 723 719 724 724 725 724 721 724 724 721 732 739 728 725 739 734 715 717 726 727 728 727 727 729 729 731 733 734 736 738 740 744 747 752 757 762 767 772 776 779 782 784 787 791 795 797 800 802 805 806 807 810 812 815 818 820 822 824 826 829 831 833 834 835 836 838 840 841 842 844 845 845 845 845 846
732 734 734 733 730 723 721 721 721 726 726 719 721 725 726 727 725 725 724 720 731 742 737 721 716 730 734 716 712 719 716 715 720 723 725 726 728 731 731 734 736 738 741 745 750 755 761 766 770 774 777 780 783 786 790 793 796 799 801 804 805 807 809 811 813 816 819 822 824 827 829 830 831 833 834 836 837 838 840 842 843 845 845 845 846 846
734 735 734 731 726 721 720 720 721 724 721 720 724 724 730 734 731 735 732 729 744 746 727 713 710 725 733 713 701 707 707 707 713 717 720 723 725 728 730 731 732 735 738 742 748 752 758 764 768 772 776 778 782 785 788 791 795 798 800 803 804 806 808 809 812 815 818 821 823 824 826 829 831 832 833 834 836 837 839 841 842 843 844 844 845 846
738 733 728 729 726 722 724 724 725 726 722 723 723 722 732 740 743 749 745 742 745 733 714 706 709 722 723 703 692 697 701 702 705 707 712 717 721 723 726 728 729 732 735 739 744 749 755 761 765 769 774 777 780 783 786 789 793 796 799 801 803 805 806 808 811 814 817 819 821 822 825 829 831 833 834 834 834 836 838 840 841 842 843 844 845 846
739 731 723 728 727 722 723 723 726 726 722 723 721 720 727 735 749 756 745 741 738 725 711 701 707 722 716 697 689 691 696 698 699 702 705 709 714 718 719 722 726 729 732 736 740 746 753 758 763 767 771 775 778 781 784 787 791 794 796 799 801 803 805 807 809 812 815 818 820 822 824 827 829 832 834 833 833 835 836 838 840 841 842 843 844 846
735 732 723 724 724 721 720 714 715 717 719 719 709 710 716 716 733 743 733 732 729 722 718 712 715 723 715 698 685 686 693 693 694 698 700 704 707 711 715 718 723 727 730 734 738 744 750 755 760 764 769 773 776 779 782 785 788 791 794 797 799 801 803 805 808 810 813 815 818 820 823 826 827 829 831 832 832 833 835 837 839 841 842 842 844 845
725 722 714 715 714 715 718 710 703 710 718 715 704 709 712 701 708 722 723 721 715 718 725 722 716 707 699 695 685 685 692 690 693 696 698 703 704 707 713 716 720 725 727 731 736 741 747 752 757 762 766 771 774 778 780 783 786 789 792 795 797 799 801 803 805 808 811 813 816 819 821 824 825 827 828 829 831 833 834 836 837 840 841 842 844 845
719 715 707 710 710 709 714 708 701 705 712 712 709 710 703 688 694 715 726 721 715 725 728 720 715 702 698 701 692 688 693 690 692 695 696 702 703 707 713 715 718 722 724 728 732 737 744 749 754 758 763 768 772 776 778 781 783 787 790 793 794 797 799 801 803 806 809 811 814 817 819 821 822 824 825 826 829 832 833 835 837 839 840 841 843 845
712 715 708 709 712 708 707 705 702 698 698 707 710 702 695 694 696 706 724 730 729 733 725 715 716 710 707 710 699 692 694 692 693 695 697 701 705 710 713 713 716 718 721 726 729 734 740 746 751 755 760 765 769 774 777 779 782 785 789 790 792 794 796 799 802 804 807 810 812 815 817 818 819 822 823 825 828 830 832 835 836 838 839 841 843 845
708 717 713 708 712 709 704 708 713 704 693 698 702 694 699 715 716 710 720 731 735 735 725 716 714 706 701 703 700 697 694 692 693 694 697 701 705 709 711 712 714 716 720 725 728 732 737 743 748 752 757 762 767 772 774 777 780 783 787 789 790 793 795 798 801 803 806 808 810 813 815 816 818 820 822 824 826 828 831 834 835 837 839 841 843 844
706 716 717 708 705 707 708 712 719 714 702 702 700 692 696 708 712 710 711 714 721 728 725 718 716 706 692 686 691 693 689 688 692 693 695 699 702 705 707 709 712 714 718 722 725 730 734 740 745 749 754 759 764 769 772 775 779 782 785 787 789 791 794 797 799 802 805 807 808 811 813 815 817 819 821 823 825 828 831 833 835 837 838 840 843 844
707 712 717 709 703 709 714 711 711 710 709 711 708 701 702 702 701 703 704 699 703 714 719 721 720 704 683 676 681 685 685 685 687 689 692 695 697 699 701 704 707 711 715 718 722 726 731 737 743 747 752 757 762 766 769 773 777 780 783 785 787 789 792 795 798 801 803 805 807 810 811 814 816 818 820 822 825 827 830 833 834 836 838 840 842 843
711 711 713 711 709 711 710 702 698 699 702 706 706 703 704 703 701 709 712 702 696 700 704 713 718 697 674 673 677 678 680 681 681 685 689 691 692 694 696 700 704 708 712 716 720 724 729 735 741 745 750 755 760 763 767 771 774 778 781 782 784 787 790 794 796 799 801 804 806 809 810 812 815 817 819 822 825 827 829 831 833 835 837 839 841 843
712 711 710 710 708 704 701 696 693 692 693 698 700 697 696 697 699 709 716 708 702 701 694 700 710 694 673 673 675 674 677 677 677 680 683 686 688 690 694 697 702 706 711 715 718 722 728 733 739 744 748 753 757 760 764 769 772 775 778 779 782 785 788 792 794 797 800 802 805 807 809 811 813 815 818 821 824 826 828 830 832 834 836 838 840 842
714 711 708 709 705 698 696 696 695 693 694 698 699 693 691 693 694 698 700 697 704 708 701 706 714 697 679 677 676 675 678 679 679 679 681 685 687 690 694 697 702 706 710 714 718 722 727 731 736 741 746 751 755 759 763 766 770 773 775 777 780 783 786 789 792 795 798 800 802 805 808 810 811 814 817 820 823 825 827 829 831 833 835 837 839 841
715 710 705 710 715 713 712 712 710 704 700 700 699 694 692 691 693 696 693 693 706 707 699 708 711 693 681 680 677 678 680 681 683 683 683 688 690 692 695 699 703 707 710 714 717 721 725 729 733 737 743 748 752 756 760 764 767 770 773 775 777 780 783 786 789 792 795 797 800 802 806 807 810 813 816 818 821 824 825 827 830 832 834 836 838 840
714 711 706 710 716 719 719 716 710 705 702 701 698 697 697 695 695 701 702 708 716 706 696 703 699 685 682 682 679 681 682 682 683 683 684 687 689 693 696 699 703 705 709 713 716 720 724 727 731 735 740 745 749 753 758 761 764 767 770 772 775 778 781 784 787 790 792 795 797 800 803 806 809 812 814 817 820 822 824 826 829 831 833 835 837 839
713 712 708 708 709 709 707 702 696 695 700 704 701 698 700 698 695 699 706 712 711 704 702 699 689 685 686 681 681 684 683 684 685 684 686 687 688 692 695 698 701 703 707 711 715 720 723 726 729 733 738 743 746 750 755 758 761 765 767 770 773 776 779 781 785 787 790 792 796 799 802 804 808 810 813 816 818 820 823 825 828 830 832 834 836 838
715 714 710 710 708 703 700 697 694 694 696 699 701 700 699 699 699 701 707 706 701 705 708 697 686 690 687 677 678 683 683 683 685 686 688 689 690 692 694 697 700 703 706 711 715 719 722 725 728 731 736 740 744 748 752 756 759 762 765 768 771 774 776 779 782 785 788 791 795 798 800 803 807 809 812 815 817 820 822 824 827 829 831 833 835 837
715 714 709 709 708 702 698 697 697 697 696 694 696 698 699 700 701 704 706 701 697 705 705 692 687 689 683 675 677 681 682 683 684 685 687 689 691 692 694 697 700 703 706 710 713 717 721 725 728 731 734 738 742 746 750 754 757 760 764 767 770 772 774 776 780 784 787 790 793 796 799 802 806 808 811 814 816 819 821 824 826 828 830 832 834 836
714 714 710 710 709 703 699 697 695 696 698 696 694 693 695 697 699 702 704 699 698 701 695 688 689 685 675 673 677 679 681 681 682 686 687 689 691 692 694 698 700 702 705 707 711 715 720 724 727 730 733 736 740 744 747 752 755 758 761 764 768 771 772 775 779 783 786 788 791 795 799 802 805 807 810 813 815 818 820 823 826 828 830 832 834 836
715 716 713 710 709 705 700 698 696 695 697 698 696 692 690 694 697 700 702 700 701 704 696 693 698 688 671 671 677 679 680 681 684 687 687 688 690 691 694 697 698 700 703 704 708 713 718 723 726 729 731 734 738 741 745 749 752 756 759 763 766 769 771 774 778 782 785 787 790 794 798 801 804 807 809 812 814 817 820 822 825 827 830 832 834 835
716 716 712 709 713 708 700 701 700 695 696 699 698 694 691 693 696 697 698 698 701 704 703 703 704 688 669 670 678 679 679 682 684 686 687 687 687 689 693 695 695 698 701 704 707 710 715 719 723 727 730 733 736 739 743 746 749 753 757 761 765 767 770 774 777 781 784 786 789 794 798 801 804 806 808 810 812 815 818 821 824 827 829 831 833 835
714 715 710 708 714 708 699 701 700 697 703 704 693 687 689 690 691 693 693 693 694 697 702 703 696 679 668 671 677 678 679 682 683 684 686 686 686 688 691 692 694 695 699 703 706 708 712 715 719 724 728 731 734 738 741 744 748 752 755 760 764 766 769 774 778 781 784 786 789 793 797 800 803 806 808 809 812 816 818 821 824 826 829 830 832 834
714 716 712 709 715 712 700 698 702 704 706 697 680 675 682 685 688 691 691 690 690 690 691 691 682 673 670 673 676 679 680 681 682 682 682 682 684 687 688 689 692 693 696 701 705 707 710 712 716 722 727 731 734 737 741 744 748 752 756 760 763 765 769 774 777 781 784 785 788 792 796 800 803 806 809 811 816 820 823 826 827 827 829 830 832 833
718 720 716 710 713 712 700 700 713 711 697 686 677 672 673 676 680 685 686 684 685 686 686 685 679 672 671 673 675 678 680 682 682 681 681 681 682 683 686 688 690 691 694 698 702 706 708 710 714 719 724 730 734 738 741 744 748 753 756 758 761 764 769 773 777 780 783 785 788 791 795 798 801 804 807 811 817 821 824 826 828 828 829 830 832 834
720 723 717 711 710 709 703 703 710 701 684 681 684 679 676 676 677 683 688 683 678 680 682 681 677 671 670 672 674 677 680 681 682 681 680 680 679 681 684 686 688 691 693 696 700 703 707 710 713 718 723 728 733 737 741 744 749 753 755 757 760 764 768 771 775 779 781 784 787 789 792 795 798 802 805 809 813 816 818 821 825 826 828 829 832 834
721 722 716 712 710 708 706 700 692 686 682 683 684 680 678 679 676 681 690 684 674 673 676 676 675 672 670 672 674 677 679 681 681 679 677 678 678 679 682 684 687 691 693 696 700 703 707 711 714 718 723 726 731 735 738 743 748 750 753 756 760 764 767 770 773 776 779 782 784 787 790 793 796 799 802 805 807 810 814 817 821 824 826 828 831 833
720 720 716 716 711 705 706 701 690 689 690 686 683 679 677 679 675 674 686 686 672 668 670 671 672 672 671 673 676 678 680 683 681 675 673 675 678 679 682 684 686 689 692 695 699 702 707 711 714 718 722 725 729 733 736 741 745 748 751 754 758 762 766 769 772 774 776 779 781 784 788 791 793 796 799 801 803 807 810 812 815 820 823 826 829 831
721 718 714 716 713 706 707 703 690 690 692 688 685 681 679 682 676 674 690 690 669 662 667 667 669 671 671 674 678 679 683 685 681 675 672 674 677 679 681 683 685 688 691 694 698 702 706 710 714 717 721 725 728 732 735 740 743 745 749 752 756 760 764 766 769 772 774 777 779 783 786 789 792 794 797 799 801 805 808 810 812 817 821 824 827 830
722 721 716 715 711 705 705 699 684 684 690 688 684 681 679 680 678 685 701 691 662 657 664 665 667 671 671 674 678 678 679 679 677 677 676 674 676 679 681 683 686 688 690 694 698 702 706 710 714 717 720 723 727 731 735 738 740 743 747 751 755 758 761 764 767 769 773 776 778 781 784 787 790 793 795 798 800 803 806 807 810 814 819 823 826 829
720 721 718 715 709 700 700 696 684 683 690 687 683 682 680 682 686 691 695 680 662 661 665 664 667 670 670 673 675 673 672 671 674 679 679 675 676 680 681 683 686 689 691 694 698 702 706 710 713 716 719 722 726 730 733 735 738 742 746 750 753 756 759 763 765 768 772 774 777 780 782 785 790 793 795 797 800 802 805 807 808 810 815 821 825 827
717 719 716 713 707 697 693 691 685 687 692 689 683 682 682 686 689 685 679 672 669 668 668 668 670 670 669 672 670 668 670 671 675 679 679 676 677 680 682 684 686 689 691 695 699 702 705 709 713 715 719 722 725 728 731 734 737 741 745 748 752 755 759 761 764 767 770 772 775 778 781 785 789 792 794 796 799 802 805 808 809 809 813 819 823 825
707 712 710 705 700 696 693 693 693 694 693 688 684 684 685 687 685 680 674 671 670 669 670 672 672 670 670 670 669 670 672 674 677 679 678 677 678 680 683 685 686 688 690 694 699 702 704 708 711 714 718 721 725 727 729 733 736 739 743 747 750 754 758 760 763 765 768 771 774 777 781 784 788 790 792 795 798 801 803 806 809 811 814 818 822 824
699 702 702 698 697 698 697 697 698 696 689 686 687 688 687 685 682 680 677 672 669 670 670 670 672 672 670 670 672 674 675 675 678 679 678 677 679 681 684 685 686 689 691 694 698 701 704 707 710 714 718 721 724 727 729 732 735 738 742 745 749 753 756 759 761 764 767 770 773 777 780 784 787 789 792 794 797 800 803 805 807 811 814 817 820 822
702 701 701 697 694 695 695 695 695 693 688 687 688 688 686 683 680 680 677 672 671 671 669 669 673 674 671 672 674 676 676 676 677 678 679 679 680 682 684 685 687 689 692 694 698 701 704 707 710 713 717 720 723 726 729 731 734 737 741 744 748 751 753 757 760 762 765 769 772 776 779 783 786 789 791 793 796 799 801 803 806 809 812 815 818 820
700 700 701 698 692 690 691 692 693 694 692 688 686 685 685 682 679 678 677 674 674 674 671 671 674 675 674 675 675 676 676 676 677 679 679 679 681 683 684 686 688 691 693 695 698 701 704 706 709 712 715 719 723 726 728 731 733 736 740 743 746 749 752 755 758 761 765 768 771 775 778 781 784 787 790 792 795 798 800 802 804 807 810 812 815 818
699 700 700 697 694 694 694 692 692 695 696 693 688 684 682 682 681 680 679 678 677 677 675 675 676 676 677 676 675 676 677 677 678 680 680 681 684 685 686 687 689 691 694 696 699 702 704 706 709 713 715 719 722 725 728 731 733 736 739 742 745 748 751 754 757 761 764 767 770 774 777 780 783 786 789 791 794 796 799 801 803 805 808 811 814 816
700 702 698 695 694 693 692 691 693 694 695 693 690 686 684 684 683 682 682 682 680 680 679 678 678 678 678 678 677 677 679 679 680 681 681 683 686 687 687 689 690 692 694 697 700 703 705 706 709 713 716 719 721 724 728 730 733 736 738 741 744 747 750 753 757 760 763 766 769 772 776 779 781 784 787 789 792 794 796 799 801 804 806 809 811 812
699 701 696 694 694 691 689 689 692 694 695 692 688 687 686 686 685 684 684 683 682 682 682 682 681 680 680 680 679 679 681 682 681 681 682 685 687 688 689 689 691 693 696 698 701 704 705 707 710 713 716 719 721 724 728 730 733 736 738 740 743 745 749 752 756 759 763 765 768 771 774 777 780 782 784 787 790 793 795 796 798 801 804 807 808 809
698 698 692 693 697 695 692 690 690 696 699 694 690 690 690 688 686 686 685 685 684 683 683 683 684 684 683 681 680 681 682 683 683 683 684 686 687 689 690 691 693 695 697 699 703 705 706 708 711 713 717 719 721 724 728 730 733 735 737 740 742 744 748 752 755 759 762 765 767 770 773 776 779 781 783 785 788 791 793 796 798 800 803 804 805 807
695 695 692 694 695 692 691 688 687 691 693 690 689 692 692 691 689 687 685 686 685 684 684 684 684 685 685 684 683 682 683 685 685 685 686 687 689 690 691 692 694 696 698 701 703 705 707 709 712 714 717 719 721 724 727 729 732 735 737 739 741 744 747 751 754 758 761 764 766 769 771 774 777 780 782 785 787 789 792 795 797 799 801 802 804 806